TimePST,TemperatureF,Dew PointF,Humidity,Sea Level PressureIn,VisibilityMPH,Wind Direction,Wind SpeedMPH,Gust SpeedMPH,PrecipitationIn,Events,Conditions,WindDirDegrees,DateUTC
12:53 AM,32.0,24.1,73,30.22,10.0,North,3.5,-,N/A,,Clear,350,2013-01-13 08:53:00
1:53 AM,36.0,19.0,50,30.24,10.0,North,4.6,-,N/A,,Clear,10,2013-01-13 09:53:00
2:53 AM,25.0,19.9,81,30.24,10.0,Calm,Calm,-,N/A,,Clear,0,2013-01-13 10:53:00
3:53 AM,25.0,19.9,81,30.24,10.0,Calm,Calm,-,N/A,,Clear,0,2013-01-13 11:53:00
4:53 AM,26.1,19.9,78,30.24,10.0,NNW,4.6,-,N/A,,Clear,340,2013-01-13 12:53:00
5:53 AM,26.1,19.9,78,30.25,10.0,Calm,Calm,-,N/A,,Clear,0,2013-01-13 13:53:00
6:53 AM,25.0,19.9,81,30.27,10.0,Calm,Calm,-,N/A,,Clear,0,2013-01-13 14:53:00
7:53 AM,26.1,19.9,78,30.28,10.0,Calm,Calm,-,N/A,,Clear,0,2013-01-13 15:53:00
8:53 AM,37.0,19.0,48,30.30,10.0,North,3.5,-,N/A,,Clear,350,2013-01-13 16:53:00
9:53 AM,39.9,19.0,43,30.28,10.0,NNW,5.8,-,N/A,,Clear,340,2013-01-13 17:53:00
10:53 AM,43.0,18.0,37,30.28,10.0,North,5.8,-,N/A,,Clear,10,2013-01-13 18:53:00
11:53 AM,45.0,17.1,33,30.25,10.0,Variable,5.8,-,N/A,,Clear,0,2013-01-13 19:53:00
12:53 PM,46.9,18.0,32,30.22,10.0,Variable,4.6,-,N/A,,Clear,0,2013-01-13 20:53:00
1:53 PM,48.0,18.0,30,30.22,10.0,North,5.8,-,N/A,,Clear,10,2013-01-13 21:53:00
2:53 PM,48.9,17.1,28,30.21,10.0,North,6.9,16.1,N/A,,Clear,10,2013-01-13 22:53:00
3:53 PM,48.9,14.0,25,30.21,10.0,North,6.9,-,N/A,,Clear,360,2013-01-13 23:53:00
4:53 PM,46.0,14.0,28,30.20,10.0,North,4.6,-,N/A,,Clear,350,2013-01-14 00:53:00
5:53 PM,39.9,19.0,43,30.20,10.0,NNW,5.8,-,N/A,,Clear,340,2013-01-14 01:53:00
6:53 PM,45.0,10.9,25,30.21,10.0,North,13.8,-,N/A,,Clear,360,2013-01-14 02:53:00
7:53 PM,44.1,10.0,25,30.22,10.0,North,15.0,23.0,N/A,,Clear,350,2013-01-14 03:53:00
8:53 PM,43.0,10.0,26,30.23,10.0,North,9.2,24.2,N/A,,Clear,360,2013-01-14 04:53:00
9:53 PM,39.9,12.0,32,30.23,10.0,North,6.9,-,N/A,,Clear,360,2013-01-14 05:53:00
11:53 PM,41.0,10.0,28,30.24,10.0,North,13.8,24.2,N/A,,Clear,360,2013-01-14 07:53:00